When you browse on this site, cookies collect data to enhance your experience and personalize the content and advertising you see.
Visit our Privacy Policy to learn more. By continuing to use the site, you agree to this use of cookies and data.
  • In Hungary
  • List of Countries
  • For 7 days
  • Water Temperature
  • Weather Map
  • News
  • Weather Widgets
  • user-avatar
    Login

    Hourly Weather Al-Hasaka

    Today, 20 November, Wednesday

    Time Temperature Precipitation Wind Pressure Humidity
    00:00 +13°C° 0 mm 1 mps 736 mmHg 29%
    01:00 +12°C° 0 mm 1 mps 736 mmHg 30%
    02:00 +12°C° 0 mm 1 mps 736 mmHg 31%
    03:00 +11°C° 0 mm 1 mps 736 mmHg 32%
    04:00 +11°C° 0 mm 1 mps 736 mmHg 33%
    05:00 +11°C° 0 mm 1 mps 736 mmHg 35%
    06:00 +10°C° 0 mm 1 mps 736 mmHg 36%
    07:00 +12°C° 0 mm 1 mps 736 mmHg 33%
    08:00 +13°C° 0 mm 1 mps 736 mmHg 30%
    09:00 +15°C° 0 mm 1 mps 736 mmHg 27%
    10:00 +16°C° 0 mm 1 mps 736 mmHg 24%
    11:00 +18°C° 0 mm 1 mps 736 mmHg 22%
    12:00 +20°C° 0 mm 1 mps 736 mmHg 20%
    13:00 +20°C° 0 mm 1 mps 736 mmHg 19%
    14:00 +21°C° 0 mm 1 mps 736 mmHg 18%
    15:00 +21°C° 0 mm 2 mps 735 mmHg 17%
    16:00 +19°C° 0 mm 2 mps 735 mmHg 20%
    17:00 +19°C° 0 mm 1 mps 735 mmHg 22%
    18:00 +16°C° 0 mm 1 mps 735 mmHg 25%
    19:00 +16°C° 0 mm 1 mps 735 mmHg 26%
    20:00 +15°C° 0 mm 1 mps 735 mmHg 27%
    21:00 +15°C° 0 mm 2 mps 735 mmHg 28%
    22:00 +14°C° 0 mm 1 mps 735 mmHg 29%
    23:00 +14°C° 0 mm 1 mps 735 mmHg 30%

    Tomorrow, 21 November, Thursday

    Time Temperature Precipitation Wind Pressure Humidity
    00:00 +13°C° 0 mm 1 mps 735 mmHg 30%
    01:00 +13°C° 0 mm 1 mps 735 mmHg 31%
    02:00 +12°C° 0 mm 1 mps 735 mmHg 32%
    03:00 +11°C° 0 mm 1 mps 734 mmHg 33%
    04:00 +10°C° 0 mm 0 mps 734 mmHg 34%
    05:00 +10°C° 0 mm 0 mps 734 mmHg 35%
    06:00 +9°C° 0 mm 0 mps 734 mmHg 36%
    07:00 +11°C° 0 mm 0 mps 735 mmHg 32%
    08:00 +13°C° 0 mm 0 mps 735 mmHg 29%
    09:00 +14°C° 0 mm 0 mps 735 mmHg 25%
    10:00 +16°C° 0 mm 0 mps 735 mmHg 23%
    11:00 +19°C° 0 mm 1 mps 735 mmHg 21%
    12:00 +20°C° 0 mm 1 mps 735 mmHg 19%
    13:00 +20°C° 0 mm 1 mps 735 mmHg 18%
    14:00 +20°C° 0 mm 2 mps 735 mmHg 17%
    15:00 +20°C° 0 mm 2 mps 734 mmHg 17%
    16:00 +19°C° 0 mm 2 mps 734 mmHg 20%
    17:00 +17°C° 0 mm 2 mps 734 mmHg 24%
    18:00 +16°C° 0 mm 2 mps 734 mmHg 27%
    19:00 +16°C° 0 mm 2 mps 734 mmHg 29%
    20:00 +15°C° 0 mm 2 mps 734 mmHg 31%
    21:00 +14°C° 0 mm 2 mps 735 mmHg 33%
    22:00 +14°C° 0 mm 2 mps 735 mmHg 34%
    23:00 +14°C° 0 mm 2 mps 735 mmHg 35%

    Day after tomorrow, 22 November, Friday

    Time Temperature Precipitation Wind Pressure Humidity
    00:00 +13°C° 0 mm 1 mps 735 mmHg 35%
    01:00 +13°C° 0 mm 2 mps 735 mmHg 35%
    02:00 +13°C° 0 mm 2 mps 735 mmHg 34%
    03:00 +12°C° 0 mm 2 mps 735 mmHg 33%
    04:00 +12°C° 0 mm 2 mps 735 mmHg 33%
    05:00 +10°C° 0 mm 2 mps 735 mmHg 34%
    06:00 +10°C° 0 mm 3 mps 735 mmHg 34%
    07:00 +11°C° 0 mm 3 mps 735 mmHg 32%
    08:00 +12°C° 0 mm 3 mps 736 mmHg 31%
    09:00 +12°C° 0 mm 3 mps 736 mmHg 29%
    10:00 +14°C° 0 mm 3 mps 736 mmHg 26%
    11:00 +16°C° 0 mm 3 mps 736 mmHg 23%
    12:00 +18°C° 0 mm 4 mps 736 mmHg 20%
    13:00 +18°C° 0 mm 4 mps 736 mmHg 19%
    14:00 +19°C° 0 mm 4 mps 736 mmHg 19%
    15:00 +19°C° 0 mm 4 mps 735 mmHg 18%
    16:00 +18°C° 0 mm 4 mps 735 mmHg 21%
    17:00 +17°C° 0 mm 4 mps 735 mmHg 23%
    18:00 +16°C° 0 mm 3 mps 735 mmHg 26%
    19:00 +14°C° 0 mm 3 mps 735 mmHg 27%
    20:00 +14°C° 0 mm 3 mps 735 mmHg 28%
    21:00 +13°C° 0 mm 3 mps 736 mmHg 29%
    22:00 +13°C° 0 mm 3 mps 736 mmHg 29%
    23:00 +13°C° 0 mm 3 mps 736 mmHg 30%

    23 November, Saturday

    Time Temperature Precipitation Wind Pressure Humidity
    00:00 +12°C° 0 mm 3 mps 736 mmHg 30%
    01:00 +12°C° 0 mm 3 mps 736 mmHg 31%
    02:00 +12°C° 0 mm 3 mps 736 mmHg 32%
    03:00 +12°C° 0 mm 3 mps 735 mmHg 32%
    04:00 +11°C° 0 mm 3 mps 736 mmHg 33%
    05:00 +11°C° 0 mm 3 mps 736 mmHg 33%
    06:00 +11°C° 0 mm 3 mps 736 mmHg 34%
    07:00 +12°C° 0 mm 3 mps 736 mmHg 32%
    08:00 +12°C° 0 mm 3 mps 736 mmHg 31%
    09:00 +13°C° 0 mm 3 mps 737 mmHg 29%
    10:00 +16°C° 0 mm 3 mps 737 mmHg 26%
    11:00 +17°C° 0 mm 3 mps 737 mmHg 23%
    12:00 +19°C° 0 mm 3 mps 737 mmHg 20%
    13:00 +19°C° 0 mm 3 mps 736 mmHg 19%
    14:00 +19°C° 0 mm 3 mps 736 mmHg 18%
    15:00 +20°C° 0 mm 3 mps 736 mmHg 17%
    16:00 +18°C° 0 mm 3 mps 736 mmHg 20%
    17:00 +17°C° 0 mm 3 mps 736 mmHg 22%
    18:00 +16°C° 0 mm 2 mps 736 mmHg 25%
    19:00 +15°C° 0 mm 2 mps 736 mmHg 27%
    20:00 +14°C° 0 mm 2 mps 736 mmHg 29%
    21:00 +14°C° 0 mm 1 mps 736 mmHg 30%
    22:00 +13°C° 0 mm 1 mps 736 mmHg 31%
    23:00 +13°C° 0 mm 1 mps 736 mmHg 33%

    24 November, Sunday

    Time Temperature Precipitation Wind Pressure Humidity
    00:00 +12°C° 0 mm 1 mps 736 mmHg 34%
    01:00 +12°C° 0 mm 1 mps 736 mmHg 34%
    02:00 +12°C° 0 mm 1 mps 736 mmHg 34%
    03:00 +10°C° 0 mm 2 mps 736 mmHg 34%
    04:00 +10°C° 0 mm 2 mps 736 mmHg 34%
    05:00 +10°C° 0 mm 2 mps 736 mmHg 34%
    06:00 +10°C° 0 mm 2 mps 736 mmHg 35%
    07:00 +12°C° 0 mm 2 mps 736 mmHg 32%
    08:00 +13°C° 0 mm 1 mps 737 mmHg 30%
    09:00 +14°C° 0 mm 1 mps 737 mmHg 28%
    10:00 +15°C° 0 mm 1 mps 737 mmHg 25%
    11:00 +18°C° 0 mm 1 mps 737 mmHg 23%
    12:00 +19°C° 0 mm 1 mps 737 mmHg 21%
    13:00 +19°C° 0 mm 1 mps 736 mmHg 20%
    14:00 +20°C° 0 mm 1 mps 736 mmHg 19%
    15:00 +18°C° 0 mm 0 mps 736 mmHg 18%
    16:00 +17°C° 0 mm 0 mps 736 mmHg 21%
    17:00 +15°C° 0 mm 0 mps 735 mmHg 24%
    18:00 +14°C° 0 mm 0 mps 735 mmHg 27%
    19:00 +13°C° 0 mm 0 mps 735 mmHg 28%
    20:00 +12°C° 0 mm 0 mps 735 mmHg 29%
    21:00 +12°C° 0 mm 0 mps 735 mmHg 30%
    22:00 +11°C° 0 mm 0 mps 735 mmHg 30%
    23:00 +11°C° 0 mm 0 mps 735 mmHg 31%

    25 November, Monday

    Time Temperature Precipitation Wind Pressure Humidity
    00:00 +11°C° 0 mm 0 mps 735 mmHg 32%
    01:00 +11°C° 0 mm 1 mps 735 mmHg 32%
    02:00 +11°C° 0 mm 1 mps 735 mmHg 32%
    03:00 +11°C° 0 mm 1 mps 735 mmHg 33%
    04:00 +11°C° 0 mm 1 mps 735 mmHg 33%
    05:00 +10°C° 0 mm 1 mps 735 mmHg 34%
    06:00 +10°C° 0 mm 1 mps 735 mmHg 34%
    07:00 +11°C° 0 mm 1 mps 735 mmHg 31%
    08:00 +13°C° 0 mm 1 mps 736 mmHg 29%
    09:00 +14°C° 0 mm 1 mps 736 mmHg 26%
    10:00 +15°C° 0 mm 1 mps 736 mmHg 24%
    11:00 +16°C° 0 mm 0 mps 736 mmHg 22%
    12:00 +17°C° 0 mm 0 mps 736 mmHg 20%
    13:00 +17°C° 0 mm 0 mps 736 mmHg 19%
    14:00 +17°C° 0 mm 0 mps 735 mmHg 18%
    15:00 +18°C° 0 mm 0 mps 735 mmHg 18%
    16:00 +17°C° 0 mm 0 mps 735 mmHg 20%
    17:00 +15°C° 0 mm 0 mps 735 mmHg 23%
    18:00 +14°C° 0 mm 0 mps 735 mmHg 25%
    19:00 +14°C° 0 mm 0 mps 735 mmHg 26%
    20:00 +14°C° 0 mm 0 mps 735 mmHg 27%
    21:00 +14°C° 0 mm 1 mps 735 mmHg 27%
    22:00 +14°C° 0 mm 1 mps 735 mmHg 28%
    23:00 +14°C° 0 mm 1 mps 735 mmHg 29%
    Show more